This is the latest recevied weather packets stored in our database for station/object N4CRH-13. If no packets are shown the sender has not sent any weather packets the latest 10 day(s).
| Time | Temp. | Humidity | Pressure | Rain* | Wind** | Luminosity | Snow |
|---|---|---|---|---|---|---|---|
| 1778104476 | -1.11° C | 98% | 1296.2 hPa | 0 mm | - | 662 W/m² | - |
| 1778104172 | -1.11° C | 98% | 1296 hPa | 0 mm | - | 294 W/m² | - |
| 1778103869 | -1.11° C | 99% | 1296.4 hPa | 0 mm | - | 295 W/m² | - |
| 1778103567 | -1.67° C | 99% | 1296.3 hPa | 0 mm | - | 248 W/m² | - |
| 1778103264 | -1.67° C | 99% | 1296.3 hPa | 0 mm | - | 198 W/m² | - |
| 1778102961 | -1.67° C | 99% | 1296.4 hPa | 0 mm | - | 345 W/m² | - |
| 1778102662 | -0.56° C | 99% | 1296.5 hPa | 0 mm | - | 326 W/m² | - |
| 1778102357 | -1.11° C | 99% | 1296.5 hPa | 0 mm | - | 377 W/m² | - |
| 1778102053 | -0.56° C | 99% | 1296.5 hPa | 0 mm | - | 390 W/m² | - |
| 1778101751 | -0.56° C | 99% | 1296.5 hPa | 0 mm | - | 457 W/m² | - |
| 1778101447 | -1.11° C | 99% | 1296.7 hPa | 0 mm | - | 393 W/m² | - |
| 1778101145 | -1.67° C | 99% | 1296.8 hPa | 0 mm | - | 253 W/m² | - |
| 1778100840 | -1.67° C | 99% | 1296.8 hPa | 0 mm | - | 217 W/m² | - |
| 1778100537 | -1.67° C | 99% | 1296.5 hPa | 0 mm | - | 233 W/m² | - |
| 1778100235 | -2.22° C | 99% | 1296.7 hPa | 0 mm | - | 231 W/m² | - |
| 1778099932 | -2.22° C | 99% | 1296.5 hPa | 0 mm | - | 199 W/m² | - |
| 1778099629 | -2.22° C | 99% | 1296.5 hPa | 0 mm | - | 185 W/m² | - |
| 1778099326 | -2.22° C | 99% | 1296.8 hPa | 0 mm | - | 205 W/m² | - |
| 1778099023 | -2.22° C | 99% | 1296.7 hPa | 0 mm | - | 186 W/m² | - |
| 1778098719 | -1.67° C | 99% | 1296.8 hPa | 0 mm | - | 185 W/m² | - |
| 1778098417 | -1.67° C | 99% | 1296.7 hPa | 0 mm | - | 169 W/m² | - |
| 1778098113 | -1.67° C | 99% | 1296.7 hPa | 0 mm | - | 263 W/m² | - |
| 1778097809 | -1.11° C | 99% | 1296.7 hPa | 0 mm | - | 406 W/m² | - |
| 1778097506 | -1.11° C | 99% | 1296.7 hPa | 0 mm | - | 423 W/m² | - |
| 1778097203 | -1.11° C | 99% | 1296.5 hPa | 0 mm | - | 494 W/m² | - |
* Rain latest hour (hover to see other rain measurements)
** Current wind speed in m/s (hover to see current wind gust speed)